Location: Buchloe
(48.0161°N, 10.7316°E)
Time: 03:24:46
(UTC+01:00)

ISS - Visible Passes

Search period start: 24 March 2019 00:00
Search period end: 03 April 2019 01:00
Orbit: 408 x 411 km, 51.6° (Epoch: 23 March)

Date Brightness Start Highest point End Pass type
(mag) Time Alt. Az. Time Alt. Az. Time Alt. Az.
24 Mar -3.5 19:31:27 10° SW 19:34:39 48° SSE 19:37:09 15° ENE visible
24 Mar -1.9 21:08:01 10° W 21:09:56 30° WNW 21:09:56 30° WNW visible
25 Mar -3.5 20:17:15 10° W 20:20:32 65° NNW 20:21:39 37° NE visible
25 Mar -0.4 21:54:16 10° WNW 21:54:25 11° WNW 21:54:25 11° WNW visible
26 Mar -3.8 19:26:33 10° WSW 19:29:51 89° N 19:33:11 10° ENE visible
26 Mar -2.3 21:03:29 10° WNW 21:05:59 37° NW 21:05:59 37° NW visible
27 Mar -3.0 20:12:41 10° W 20:15:53 47° N 20:17:28 25° NE visible
27 Mar -0.6 21:49:37 10° WNW 21:50:14 15° WNW 21:50:14 15° WNW visible
28 Mar -3.2 19:21:52 10° W 19:25:07 56° NNW 19:28:24 10° ENE visible
28 Mar -2.6 20:58:52 10° WNW 21:01:38 41° NNW 21:01:38 41° NNW visible
29 Mar -2.8 20:08:04 10° WNW 20:11:15 42° N 20:12:59 22° ENE visible
29 Mar -0.9 21:44:49 10° WNW 21:45:44 17° WNW 21:45:44 17° WNW visible
30 Mar -2.9 19:17:14 10° W 19:20:25 44° N 19:23:37 10° ENE visible
30 Mar -3.2 20:54:06 10° WNW 20:57:03 52° NNW 20:57:03 52° NNW visible
31 Mar -3.1 21:03:20 10° WNW 21:06:33 46° N 21:08:20 22° ENE visible
31 Mar -1.2 22:39:58 10° WNW 22:41:05 19° WNW 22:41:05 19° WNW visible
01 Apr -2.9 20:12:32 10° WNW 20:15:43 42° N 20:18:54 10° ENE visible
01 Apr -3.8 21:49:13 10° WNW 21:52:22 79° NW 21:52:22 79° NW visible
02 Apr -3.6 20:58:28 10° WNW 21:01:45 63° NNE 21:03:39 23° E visible
02 Apr -1.3 22:35:13 10° W 22:36:24 18° W 22:36:24 18° W visible
